This is the latest recevied weather packets stored in our database for station/object KI4HRG. If no packets are shown the sender has not sent any weather packets the latest 10 day(s).
| Time | Temp. | Humidity | Pressure | Rain* | Wind** | Luminosity | Snow |
|---|---|---|---|---|---|---|---|
| 1787444992 | 30° C | 62% | 1014.8 hPa | 0 mm | - | 0 W/m² | - |
| 1787444688 | 30° C | 61% | 1014.6 hPa | 0 mm | - | 0 W/m² | - |
| 1787444384 | 30° C | 61% | 1014.4 hPa | 0 mm | - | 2 W/m² | - |
| 1787444079 | 30° C | 60% | 1014.4 hPa | 0 mm | - | 3 W/m² | - |
| 1787443778 | 30.56° C | 60% | 1014.3 hPa | 0 mm | - | 6 W/m² | - |
| 1787443473 | 30.56° C | 59% | 1014.1 hPa | 0 mm | - | 10 W/m² | - |
| 1787443172 | 31.11° C | 58% | 1014.1 hPa | 0 mm | - | 14 W/m² | - |
| 1787442867 | 31.67° C | 56% | 1014.1 hPa | 0 mm | - | 16 W/m² | - |
| 1787442564 | 31.67° C | 55% | 1014.3 hPa | 0 mm | - | 17 W/m² | - |
| 1787442260 | 32.22° C | 54% | 1014.1 hPa | 0 mm | - | 22 W/m² | - |
| 1787441955 | 32.22° C | 52% | 1014.2 hPa | 0 mm | - | 25 W/m² | - |
| 1787441650 | 32.78° C | 52% | 1014.3 hPa | 0 mm | - | 29 W/m² | - |
| 1787441344 | 32.78° C | 52% | 1014.4 hPa | 0 mm | - | 35 W/m² | - |
| 1787441041 | 32.78° C | 51% | 1014.4 hPa | 0 mm | - | 43 W/m² | - |
| 1787440737 | 32.78° C | 50% | 1014.4 hPa | 0 mm | - | 53 W/m² | - |
| 1787440436 | 32.78° C | 50% | 1014.3 hPa | 0 mm | - | 58 W/m² | - |
| 1787440128 | 32.78° C | 51% | 1014.3 hPa | 0 mm | - | 59 W/m² | - |
| 1787439823 | 32.78° C | 52% | 1014.2 hPa | 0 mm | - | 64 W/m² | - |
| 1787439518 | 33.33° C | 50% | 1014.4 hPa | 0 mm | - | 56 W/m² | - |
| 1787439215 | 33.33° C | 49% | 1014.1 hPa | 0 mm | - | 58 W/m² | - |
| 1787438911 | 33.33° C | 49% | 1014.2 hPa | 0 mm | - | 60 W/m² | - |
| 1787438610 | 33.33° C | 49% | 1014.2 hPa | 0 mm | - | 62 W/m² | - |
| 1787438305 | 33.33° C | 49% | 1014.4 hPa | 0 mm | - | 65 W/m² | - |
| 1787437999 | 33.89° C | 48% | 1014.1 hPa | 0 mm | - | 76 W/m² | - |
| 1787437695 | 33.89° C | 48% | 1014.2 hPa | 0 mm | - | 71 W/m² | - |
* Rain latest hour (hover to see other rain measurements)
** Current wind speed in m/s (hover to see current wind gust speed)